Location: Brantley
(31.5822°N, 86.2569°W)
Time: 17:33:09
(UTC+00:00)

A-11 Canister half - All Passes

Search period start: 16 February 2026 00:00
Search period end: 26 February 2026 00:00
Orbit: 1512 x 1687 km, 47.2° (Epoch: 16 February)

Date Brightness Start Highest point End Pass type
(mag) Time Alt. Az. Time Alt. Az. Time Alt. Az.
16 Feb - 01:23:34 10° SSW 01:33:18 53° SE 01:42:57 10° ENE visible
16 Feb - 03:28:25 10° WSW 03:38:23 57° NNW 03:48:10 10° NE visible
16 Feb - 05:36:36 10° WNW 05:45:21 32° N 05:53:51 10° NE night (unlit)
16 Feb - 07:43:43 10° NW 07:52:50 40° NNE 08:01:36 10° E visible
16 Feb - 09:48:56 10° NW 09:58:40 87° SW 10:08:01 10° SE visible
16 Feb - 11:55:50 10° WNW 12:02:33 22° SW 12:09:12 10° S visible
17 Feb - 01:00:39 10° SSW 01:10:16 49° SE 01:19:48 10° ENE visible
17 Feb - 03:05:13 10° WSW 03:15:15 60° NNW 03:25:06 10° NE visible
17 Feb - 05:13:20 10° WNW 05:22:08 33° N 05:30:42 10° NE visible
17 Feb - 07:20:36 10° NW 07:29:40 39° NNE 07:38:24 10° E visible
17 Feb - 09:25:52 10° NW 09:35:38 89° NE 09:45:00 10° SE visible
17 Feb - 11:32:28 10° WNW 11:39:36 24° SW 11:46:37 10° S visible
18 Feb - 00:37:45 10° SSW 00:47:14 46° SE 00:56:38 10° ENE visible
18 Feb - 02:42:02 10° WSW 02:52:07 63° NNW 03:02:02 10° NE visible
18 Feb - 04:50:02 10° WNW 04:58:54 33° N 05:07:34 10° NE visible
18 Feb - 06:57:27 10° NW 07:06:29 38° NNE 07:15:11 10° E visible
18 Feb - 09:02:46 10° NW 09:12:35 84° NE 09:21:58 10° SE visible
18 Feb - 11:09:09 10° WNW 11:16:39 27° SW 11:24:00 10° S visible
19 Feb - 00:14:54 10° SSW 00:24:12 42° SE 00:33:28 10° ENE visible
19 Feb - 02:18:51 10° WSW 02:28:59 66° NNW 02:38:59 10° NE visible
19 Feb - 04:26:45 10° WNW 04:35:41 34° N 04:44:26 10° NE visible
19 Feb - 06:34:18 10° NW 06:43:18 37° NNE 06:51:59 10° E visible
19 Feb - 08:39:41 10° NW 08:49:30 80° NE 08:58:55 10° SE visible
19 Feb - 10:45:52 10° WNW 10:53:41 29° SW 11:01:20 10° S visible
19 Feb - 23:52:04 10° SSW 00:01:11 39° SE 00:10:17 10° ENE visible
20 Feb - 01:55:42 10° WSW 02:05:52 70° NW 02:15:56 10° NE visible
20 Feb - 04:03:28 10° WNW 04:12:29 35° NNW 04:21:18 10° NE visible
20 Feb - 06:11:08 10° NW 06:20:06 36° NNE 06:28:46 10° ENE night (unlit)
20 Feb - 08:16:35 10° NW 08:26:27 76° NE 08:35:53 10° ESE visible
20 Feb - 10:22:36 10° WNW 10:30:43 32° SW 10:38:38 10° S visible
20 Feb - 23:29:14 10° S 23:38:10 36° SE 23:47:05 10° ENE daylight
21 Feb - 01:32:33 10° WSW 01:42:45 73° NW 01:52:51 10° NE visible
21 Feb - 03:40:11 10° WNW 03:49:16 36° NNW 03:58:11 10° NE visible
21 Feb - 05:47:58 10° NW 05:56:54 35° NNE 06:05:33 10° ENE visible
21 Feb - 07:53:30 10° NW 08:03:22 72° NE 08:12:48 10° ESE visible
21 Feb - 09:59:22 10° WNW 10:07:45 35° SW 10:15:54 10° S visible
21 Feb - 23:06:27 10° S 23:15:09 34° SE 23:23:51 10° ENE daylight
22 Feb - 01:09:26 10° WSW 01:19:38 77° NW 01:29:47 10° NE visible
22 Feb - 03:16:53 10° W 03:26:03 37° NNW 03:35:04 10° NE visible
22 Feb - 05:24:47 10° NW 05:33:42 34° N 05:42:20 10° ENE visible
22 Feb - 07:30:25 10° NW 07:40:16 68° NE 07:49:43 10° ESE visible
22 Feb - 09:36:09 10° WNW 09:44:46 38° SW 09:53:08 10° SSE visible
22 Feb - 22:43:42 10° S 22:52:09 31° SE 23:00:36 10° ENE daylight
23 Feb - 00:46:20 10° SW 00:56:32 81° NW 01:06:43 10° NE visible
23 Feb - 02:53:36 10° W 03:02:51 38° NNW 03:11:57 10° NE visible
23 Feb - 05:01:35 10° NW 05:10:29 34° N 05:19:07 10° ENE visible
23 Feb - 07:07:19 10° NW 07:17:11 65° NNE 07:26:38 10° ESE visible
23 Feb - 09:12:56 10° WNW 09:21:47 41° SW 09:30:21 10° SSE visible
23 Feb - 22:20:59 10° S 22:29:09 29° SE 22:37:19 10° ENE daylight
24 Feb - 00:23:14 10° SW 00:33:26 85° NW 00:43:38 10° NE visible
24 Feb - 02:30:19 10° W 02:39:39 39° NNW 02:48:51 10° NE visible
24 Feb - 04:38:24 10° NW 04:47:16 33° N 04:55:54 10° ENE visible
24 Feb - 06:44:13 10° NW 06:54:05 62° NNE 07:03:32 10° ESE night (unlit)
24 Feb - 08:49:46 10° WNW 08:58:48 44° SW 09:07:32 10° SSE visible
24 Feb - 21:58:19 10° S 22:06:08 26° SE 22:14:00 10° ENE daylight
25 Feb - 00:00:09 10° SW 00:10:21 89° NW 00:20:34 10° NE visible
25 Feb - 02:07:03 10° W 02:16:27 40° NNW 02:25:44 10° NE visible
25 Feb - 04:15:11 10° NW 04:24:03 33° N 04:32:41 10° ENE visible
25 Feb - 06:21:08 10° NW 06:30:58 59° NNE 06:40:24 10° ESE night (unlit)
25 Feb - 08:26:36 10° WNW 08:35:48 48° SW 08:44:42 10° SSE visible
25 Feb - 21:35:41 10° S 21:43:09 24° SE 21:50:39 10° ENE daylight
